Flag for U.S.A. Weather past 2 weeks in Mason, Ohio, U.S.A.

Now
25 °F

Partly sunny.


Feels Like: 18 °F
Forecast: 5 / 28 °F
Wind: 6 mph from East

Location: Butler County Regional Airport

Current Time: Feb 28, 2015 at 1:26:31 PM

Latest Report: Feb 28, 2015 at 12:53 PM


Visibility: 10 mi

Pressure: 30.73 "Hg

Humidity: 42%

Dew point: 5 °F

Location of MasonLocation

Historic Weather in Mason — Graph

°F

Mason temperature yesterday

Maximum temperature yesterday: 21 °F (at 2:53 PM)
Minimum temperature yesterday: 2 °F (at 7:53 AM)
Average temperature yesterday: 12 °F

Past Weeks' High & Low Weather Summary

 TemperatureHumidityPressure
High35 °F (Feb 25, 2:53 PM)97% (Feb 21, 4:53 PM)30.80 "Hg (Feb 21, 4:53 PM)
Low-19 °F (Feb 24, 4:53 AM)29% (Feb 14, 12:53 PM)29.77 "Hg (Feb 14, 10:53 AM)
Average15 °F65%30.25 "Hg
* Reported Feb 13 11:01 AM — Feb 28 11:53 AM, Mason, Weather by CustomWeather, © 2015

Note: Actual official high and low records may vary slightly from our data, if they occured in-between our weather recording intervals... More about our weather records

Advertising

Mason weather history for previous 24 hours

 ConditionsComfort  
Time TempWeatherWind HumidityBarometerVisibility
11:53 AM
Sat, Feb 28
22 °FOvercast.6 mph44%30.77 "Hg10 mi
10:53 AM19 °FOvercast.7 mph49%30.78 "Hg10 mi
9:53 AM17 °FOvercast.7 mph49%30.79 "Hg10 mi
8:53 AM14 °FOvercast.5 mph56%30.80 "Hg10 mi
7:53 AM12 °FMostly cloudy.3 mph64%30.78 "Hg10 mi
6:53 AM6 °FPassing clouds.3 mph76%30.77 "Hg10 mi
5:53 AM3 °FPassing clouds.No wind84%30.75 "Hg10 mi
4:53 AM4 °FClear.No wind80%30.74 "Hg10 mi
3:53 AM7 °FOvercast.No wind73%30.73 "Hg10 mi
2:53 AM3 °FPassing clouds.No wind79%30.73 "Hg10 mi
1:53 AM2 °FClear.3 mph83%30.74 "Hg10 mi
12:53 AM3 °FClear.No wind79%30.73 "Hg10 mi
11:53 PM
Fri, Feb 27
6 °FClear.No wind79%30.73 "Hg10 mi
10:53 PM9 °FClear.No wind73%30.73 "Hg10 mi
9:53 PM10 °FClear.No wind67%30.73 "Hg10 mi
8:53 PM8 °FClear.No wind72%30.72 "Hg10 mi
7:53 PM9 °FClear.6 mph64%30.69 "Hg10 mi
6:53 PM16 °FClear.5 mph49%30.67 "Hg10 mi
5:53 PM20 °FSunny.5 mph41%30.66 "Hg10 mi
4:53 PM21 °FSunny.8 mph41%30.65 "Hg10 mi
3:53 PM19 °FSunny.8 mph47%30.65 "Hg10 mi
2:53 PM21 °FSunny.6 mph43%30.64 "Hg10 mi
1:53 PM20 °FSunny.6 mph43%30.65 "Hg10 mi
Weather by CustomWeather, © 2015

See weather overviewHow to use our weather pages